P/2004 DO29 (Spacewatch-LINEAR)

Epoch 2004 Oct. 2.0 TT = JDT 2453280.5

T 2004 Oct. 9.34401 TT                                  Kobayashi

q   4.0968867            (2000.0)            P               Q

n   0.04853583     Peri.   41.59554     -0.97538151     +0.17554987

a   7.4432241      Node   147.77717     -0.19911316     -0.96121585

e   0.4495817      Incl.   14.49555     +0.09478847     -0.21271184

P  20.31

From 70 observations 2004 Feb. 11-2005 July 10, mean residual 0".63.

Residuals in seconds of arc

2004/                     040315 703  0.2-  0.9+    040320 360  0.2+  0.5-    

040211 699  0.7-  0.0     040315 703  0.4+  0.9+    040320 360  0.1-  0.2+    

040211 699  0.8+  1.3-    040315 703  1.0-  0.1+    040320 J87  0.4-  0.0     

040211 699 (2.2-  0.7-)   040315 703  0.2-  0.4-    040320 J87  0.0   0.6-    

040211 699  0.2+  0.4+    040316 568  0.4+  0.3-    040320 J87  0.2-  0.3-    

040217 691  0.4+  0.4-    040316 568  0.3+  0.5-    040322 704  0.6+  0.1+    

040217 691  0.0   0.3-    040316 568  0.4+  0.5-    040322 704  1.8+  0.9+    

040217 704  1.4-  1.0+    040317 215  0.4+  0.2-    040322 704  0.9-  0.0     

040217 691  0.3-  0.5-    040317 204  0.0   0.2+    040326 703  0.2-  0.6+    

040217 704  0.6+  0.3+    040318 204  0.2+  0.3+    040326 703  0.4-  0.3+    

040217 704  0.6+  0.9+    040318 372  0.3-  0.5-    040326 703  1.1-  0.2+    

040217 704  1.7+  1.0+    040318 360  0.2+  0.3+    040326 703  0.0   0.0     

040223 704  0.5+  0.8-    040318 360  0.0   0.6-    040412 213 (1.5-  2.2-)   

040223 704  0.1+  0.9-    040318 360  1.1-  0.3-    040412 213  1.4-  1.5-    

040223 704  0.1-  0.2+    040319 J87  0.5-  0.0     040414 215  0.8-  0.5+    

040223 704  0.2-  0.3-    040319 J87  0.3-  0.3-    040420 360  0.5+  0.1-    

040223 704  0.2-  0.4-    040319 J87  1.3-  0.5-    040420 360  0.7+  0.2-    

040225 704  0.9-  1.2-    040319 644  0.3+  0.2+    040420 360  0.5+  0.2-    

040225 704 (1.3+  2.3+)   040319 644  0.5+  0.3+    2005/                     

040225 704  0.9-  0.5+    040319 644  0.3+  0.4+    050604 291  0.1-  0.2-    

040225 704  0.8-  0.1+    040319 704  1.6+  0.1+    050604 291  0.2+  0.4+    

040225 704  0.8-  0.0     040319 704  1.0+  0.6+    050604 291  0.3-  0.1+    

040226 704 (2.2-  0.5+)   040319 704  0.9+  0.1+    050710 673  0.2-  0.6+    

040226 704 (2.3-  0.4+)   040319 704  1.0+  0.8+    050710 673  0.1+  0.2-    

040226 704  0.7+  0.5+    040319 213  0.5-  0.6+                              

040226 704  0.4-  0.2+    040320 360  0.3+  0.0                               



NAKANO

         **** Don't distribute anyone except personal use only ****

                (C) Copyright 2005 OAA/ComputingSection

write mail from CFAD0::NAKANO on 2005-11-03 23:34:28(JST).

 



    P/2004 DO29 (Spacewatch-LINEAR)                                       

Epoch 2004 Oct. 2.0 TT = JDT 2453280.5  

T 2004 Oct. 9.18160 TT                                  Nakano

q   4.0972819            (2000.0)            P               Q

n   0.04854958     Peri.   41.56837     -0.97546283     +0.17509441

a   7.4418180      Node   147.77753     -0.19866424     -0.96131064

e   0.4494246      Incl.   14.49614     +0.09489357     -0.21265890

P  20.30 (+/- 1.44 day)

From 64 observations 2004 Feb. 11-Apr. 20, mean residual 0".63.



NAKANO

         **** Don't distribute anyone except personal use only ****

                (C) Copyright 2005 OAA/ComputingSection

write mail from CFAD0::NAKANO on 2005-05-07 04:29:59(JST).

 

    P/2004 DO29 (Spacewatch-LINEAR)                                       

T 2004 Oct. 10.48107 TT                                 Nakano

q   4.0968045            (2000.0)            P               Q

n   0.04848398     Peri.   41.66241     -0.97486942     +0.17831767

a   7.4485297      Node   147.86908     -0.20177107     -0.96083542

e   0.4499848      Incl.   14.54141     +0.09443541     -0.21212755

P  20.33 (+/- 1.47 day)

From 64 observations 2004 Feb. 11-Apr. 20.



NAKANO

         **** Don't distribute anyone except personal use only ****

                (C) Copyright 2004 OAA/ComputingSection

write mail from CFAD0::NAKANO on 2004-04-24 06:00:27(JST).

 

9◎P/2004 DO29の軌道と予報位置です



 久万の中村彰正氏から3月18日の観測が報告されました.氏の CCD全光度は,

19.3等でした.



    P/2004 DO29 (Spacewatch-LINEAR)                                       

T 2004 Oct. 8.43161 TT                                  Nakano

q   4.0921721            (2000.0)            P               Q

n   0.04841196     Peri.   41.48577     -0.97557550     +0.17467516

a   7.4559153      Node   147.83668     -0.19818862     -0.96141559

e   0.4511509      Incl.   14.48995     +0.09472970     -0.21252917

P  20.36 (+/- 6.21 day)

From 34 observations 2004 Feb. 11-Mar. 18.

 

Date/        TT  R.A.(2000) Decl.     Delta   r     Daily motion  Mag.  Moon Age

              h    h  m       。  ,                      ,  / PA 。  m1      。

2004 Mar. 15 14  10 35.31  +13 14.0   3.309  4.257     7.5 / 309  18.9  132  .31

          16 14  10 34.91  +13 18.7   3.313  4.255     7.4 / 309  18.9  146  .21

          17 14  10 34.51  +13 23.3   3.317  4.254     7.3 / 309  18.9  160  .13

          18 14  10 34.13  +13 27.8   3.321  4.252     7.1 / 309  18.9  174  .06

          19 14  10 33.75  +13 32.3   3.325  4.251     7.0 / 309  18.9  172  .02

          20 14  10 33.37  +13 36.7   3.329  4.249     6.8 / 309  18.9  159  .00

          21 14  10 33.01  +13 41.0   3.334  4.248     6.7 / 309  18.9  146  .00

          22 14  10 32.66  +13 45.2   3.339  4.246     6.5 / 309  18.9  133  .03

          23 14  10 32.31  +13 49.3   3.345  4.245     6.3 / 310  18.9  121  .07

          24 14  10 31.98  +13 53.3   3.350  4.243     6.2 / 310  18.9  108  .13

          25 14  10 31.65  +13 57.3   3.356  4.242     6.0 / 310  18.9   96  .20

          26 14  10 31.33  +14 01.2   3.362  4.240     5.8 / 310  18.9   84  .28

          27 14  10 31.03  +14 04.9   3.369  4.239     5.6 / 311  18.9   72  .37

          28 14  10 30.74  +14 08.6   3.375  4.237     5.4 / 311  18.9   60  .46

          29 14  10 30.46  +14 12.2   3.382  4.236     5.3 / 312  18.9   48  .56

          30 14  10 30.18  +14 15.7   3.389  4.235     5.1 / 312  18.9   36  .65

          31 14  10 29.93  +14 19.0   3.396  4.233     4.9 / 312  18.9   24  .74

     Apr.  1 14  10 29.68  +14 22.3   3.404  4.232     4.7 / 313  18.9   11  .83

           2 14  10 29.44  +14 25.5   3.412  4.230     4.5 / 314  18.9    2  .90

           3 14  10 29.22  +14 28.6   3.420  4.229     4.3 / 314  18.9   16  .95

           4 14  10 29.01  +14 31.6   3.428  4.227     4.1 / 315  18.9   30  .99

           5 14  10 28.82  +14 34.4   3.436  4.226     3.8 / 316  18.9   44 1.00

           6 14  10 28.63  +14 37.2   3.445  4.225     3.6 / 317  18.9   59  .98

           7 14  10 28.46  +14 39.9   3.454  4.223     3.4 / 318  18.9   73  .94

           8 14  10 28.31  +14 42.5   3.463  4.222     3.2 / 320  19.0   88  .87

           9 14  10 28.16  +14 44.9   3.472  4.220     3.0 / 321  19.0  103  .78

          10 14  10 28.03  +14 47.3   3.481  4.219     2.8 / 323  19.0  117  .68

          11 14  10 27.91  +14 49.5   3.491  4.218     2.6 / 325  19.0  131  .57

          12 14  10 27.81  +14 51.7   3.500  4.216     2.4 / 328  19.0  145  .45

          13 14  10 27.72  +14 53.7   3.510  4.215     2.2 / 331  19.0  159  .34

          14 14  10 27.65  +14 55.7   3.520  4.214     2.0 / 334  19.0  173  .24

          15 14  10 27.59  +14 57.5   3.531  4.212     1.8 / 339  19.0  174  .16

NAKANO

         **** Don't distribute anyone except personal use only ****

                (C) Copyright 2004 OAA/ComputingSection

write mail from CFAD0::NAKANO on 2004-03-20 06:03:06(JST).

 

戻ります。